Current Weather Conditions: station 62302

sailwx.info

Wind from 270

Wave height 3.5 meters (11 feet), 9 second period

Visibility: greater than 10.8 NM

Last reported at 2018-Feb-21 10:00 UTC.
Time now 2018-Feb-21 11:49 UTC

Location: N 60°42' W 002°24'.
View on Google Maps.

See reports from other nearby stations

  
Tides and Currents Weather Stations Pressure Air Temp Water Temp Dewpoint Dewpoint Depression Visibility Wind Speed Wind Dir Waves Ship Positions
date/time (UTC)wind fromknots sea level pressurealtimeterstation pressurevisibilityair tempwater tempwave heightnotes
2018-Feb-21 10:00 270 10.8 3.5
2018-Feb-21 09:00 310 10.8 4.0
2018-Feb-21 08:00 320 10.8 4.0
2018-Feb-21 07:00 300 10.8 3.7
2018-Feb-21 06:00 310 10.8 4.1
2018-Feb-21 05:00 320 10.8 4.5
2018-Feb-21 04:00 310 10.8 4.3
2018-Feb-21 03:00 320 10.8 4.1
2018-Feb-21 02:00 320 10.8 3.8
2018-Feb-21 01:00 300 10.8 4.1
2018-Feb-21 00:00 310 10.8 4.3
2018-Feb-20 23:00 300 10.8 4.0
2018-Feb-20 22:00 300 10.8 4.0
2018-Feb-20 21:00 290 10.8 4.1
2018-Feb-20 20:00 290 10.8 4.3
2018-Feb-20 19:00 300 10.8 4.3
2018-Feb-20 18:00 290 5.4 4.5
2018-Feb-20 17:00 300 5.4 4.2
2018-Feb-20 16:00 290 5.4 4.0
2018-Feb-20 15:00 300 5.4 4.8
2018-Feb-20 14:00 300 5.4 4.4
2018-Feb-20 13:00 310 27.0 4.4
2018-Feb-20 12:00 300 27.0 4.2
2018-Feb-20 11:00 290 10.8 3.4
2018-Feb-20 10:00 290 5.4 3.4
2018-Feb-20 09:00 290 5.4 2.9
2018-Feb-20 08:00 300 5.4 2.4
2018-Feb-20 07:00 250 5.4 2.8
2018-Feb-20 06:00 250 10.8 2.7
2018-Feb-20 05:00 270 5.4 2.6
2018-Feb-20 04:00 340 5.4 2.8
2018-Feb-20 03:00 320 5.4 2.9
2018-Feb-20 02:00 310 2.2 3.0
2018-Feb-20 01:00 180 1.1 3.0
2018-Feb-20 00:00 180 2.2 3.0
2018-Feb-19 23:00 170 2.2 3.0
2018-Feb-19 22:00 170 10.8 2.9
2018-Feb-19 21:00 160 2.2 2.8
2018-Feb-19 20:00 160 1.1
2018-Feb-19 19:00 160 2.2 2.6
2018-Feb-19 18:00 150 5.4 2.6
2018-Feb-19 17:00 150 2.2 2.3
2018-Feb-19 16:00 150 5.4 2.3
2018-Feb-19 15:00 150 5.4 2.3
2018-Feb-19 14:00 150 10.8 2.2
2018-Feb-19 13:00 150 10.8 2.0
2018-Feb-19 12:00 150 10.8 2.2